РЕСТАРТ"следуй за нами"

Arkham

Информация о пользователе

Привет, Гость! Войдите или зарегистрируйтесь.


Вы здесь » Arkham » Сгоревшие рукописи


Сгоревшие рукописи

Тем 691 страница 720 из 808

Тема Ответов Просмотров Последнее сообщение
4 164 21-01-2019 10:22:02  Magnus Rodricks
692 nice to meat you  Vendetta Marlowe
8 478 21-01-2019 01:16:55  Daniel Grizzels
1 496 20-01-2019 19:44:21  Magenta Everhart
694 [AU] oh, what fun it is to collide  Roderick Ambrose
2 65 20-01-2019 14:08:37  Roderick Ambrose
695 [AU] Life in da Trash  Roderick Ambrose
3 60 20-01-2019 13:44:00  Roderick Ambrose
696 Stop me  Abigail Henderson
2 102 20-01-2019 01:14:22  Roy Patterson
697 homecoming  Vendetta Marlowe
2 74 19-01-2019 18:22:31  Vendetta Marlowe
698 Алисия Мур, маг  Alycia Moore
1 751 19-01-2019 17:36:16  Alycia Moore
699 [AU] wastelands  Valerie Delaney
2 188 19-01-2019 14:58:16  Valerie Delaney
700 Hello, my dear  Abigail Henderson
0 34 19-01-2019 08:30:50  Abigail Henderson
0 186 17-01-2019 01:22:06  Samuel Norman
1 425 16-01-2019 22:35:56  Persephone Whitefern
6 362 15-01-2019 19:48:13  Andrei Nightshade
1 280 15-01-2019 12:16:40  Kyle Nightshade
6 387 14-01-2019 03:15:05  Sebastian Valentine
1 212 13-01-2019 21:09:07  Arkham Horror
0 286 13-01-2019 17:41:45  Mortimer Sage
2 208 11-01-2019 17:58:04  Amelia Lestrange
709 troubles in el-paso  Harvey Ryker
3 178 10-01-2019 20:53:13  Rosalinda Martinez
1 224 10-01-2019 20:30:02  Benjamin Thorne
711 Bad good fairytale  Roderick Ambrose
5 326 09-01-2019 18:13:08  Roderick Ambrose
0 234 09-01-2019 18:01:23  Markus Everett
0 187 09-01-2019 17:21:44  Gwendolyn Nightshade
714 save me  Margaret Fontaine
1 67 09-01-2019 15:17:14  Magnus Rodricks
715 i want to see you smile  Baldassare Gonzalez
2 74 08-01-2019 09:20:34  Baldassare Gonzalez
716 я вас не звал  Luka Gonzalez
5 397 08-01-2019 02:32:32  Luka Gonzalez
11 413 07-01-2019 23:38:46  Oliver Templeton
718 [AU] Dead Black Heart  Roderick Ambrose
1 55 07-01-2019 18:14:31  Alfie Virgil
0 751 07-01-2019 16:19:50  Warren Graham
1 354 07-01-2019 08:24:45  Baldassare Gonzalez

Вы здесь » Arkham » Сгоревшие рукописи


Рейтинг форумов | Создать форум бесплатно © 2007–2019 «QuadroSystems» LLC